Terminal Aerodrome Forecast
Issued by NWS

Home | Current Version | Previous Version | Text Only | Print | Product List | Glossary Off
Versions: 1 2 3 4 5 6 7 8 9 10 11 12 13 14 15 16 17

000
FTUS45 KGGW 170520
TAFGDV
TAF
KGDV 170520Z 1706/1806 23006KT P6SM SKC
     FM171200 23010KT P6SM SKC
     FM180300 22009KT P6SM FEW210 WS020/23035KT=

USA.gov is the U.S. government's official web portal to all federal, state and local government web resources and services.